{"data":{"norad_id":56304,"intl_designator":"2023-056U","name":"STARLINK-30099","alt_names":[],"object_type":"PAYLOAD","status":"ACTIVE","operator":null,"country":"US","launch_date":"2023-04-19","launch_site_code":"AFETR","launch_vehicle":null,"mission":null,"orbit_class":"UNKNOWN","rcs_meters":null,"size_class":null,"mass_kg":null,"dimensions":null,"purposes":["comms"],"wikipedia_slug":null,"has_3d_model":false,"image_url":null,"decayed_at":null,"tle_current":{"epoch":"2026-09-20T11:36:41.661792Z","epoch_age_seconds":110036,"freshness":"FRESH","line1":"1 56304U 23056U   26263.48381553  .00004645  00000+0  17817-3 0  9995","line2":"2 56304  43.0010 188.5294 0001461 271.8388  88.2296 15.27591257189898","mean_motion":15.27591257,"eccentricity":0.0001461,"inclination_deg":43.001,"raan_deg":188.5294,"arg_perigee_deg":271.8388,"mean_anomaly_deg":88.2296,"bstar":0.00017817,"rev_number":18989,"period_min":94.266054050871,"perigee_km":482.01297437497,"apogee_km":484.01780310296,"semimajor_km":6861.152388739,"source":"CELESTRAK","updated_at":"2026-09-21T09:00:33.394782Z"}}}